Weather History for Prescott, AZ

Change the Weather History Date:

Monday, December 31, 2012

  Actual Average Record
Temperature  
Mean Temperature 28 °F 38 °F  
Max Temperature 34 °F 50 °F 67 °F (1963)
Min Temperature 21 °F 25 °F 4 °F (2010)
Degree Days  
Heating Degree Days 38    
Month to date heating degree days  
Since 1 July heating degree days  
Cooling Degree Days 0    
Month to date cooling degree days  
Year to date cooling degree days  
Moisture  
Dew Point 24 °F    
Average Humidity 84    
Maximum Humidity 100    
Minimum Humidity 64    
Precipitation  
Precipitation 0.07 in 0.03 in 0.41 in (1976)
Month to date precipitation 0.96  
Year to date precipitation 13.97  
Sea Level Pressure  
Sea Level Pressure 29.99 in    
Wind  
Wind Speed 2 mph (West)    
Max Wind Speed 7 mph    
Max Gust Speed -    
Visibility 7 miles    
Events Fog , Snow    
T = Trace of Precipitation, MM = Missing Value Source: NWS Daily Summary

Daily Weather History Graph

Daily Weather History Graph

Search for Another Location

Airport:

Trip Planner

Search our weather history database for the weather conditions in past years. The results will help you decide how hot, cold, wet, or windy it might be!

Date:

Astronomy

Dec. 31, 2012 Rise Set
Actual Time 7:36 AM MST 5:29 PM MST
Civil Twilight 7:08 AM MST 5:57 PM MST
Nautical Twilight 6:37 AM MST 6:28 PM MST
Astronomical Twilight 6:06 AM MST 6:59 PM MST
Moon 8:54 PM MST (12/31) 9:28 AM MST (12/31)
Length of Visible Light 10h 48m
Length of Day
9h 52m
Waning Gibbous, 90% of the Moon is Illuminated
Dec 31
Waning Gibbous
Jan 4
Last Quarter
Jan 11
New
Jan 18
First Quarter
Jan 26
Full

Hourly Weather History & Observations

Time (MST) Temp. Windchill Dew Point Humidity Pressure Visibility Wind Dir Wind Speed Gust Speed Precip Events Conditions
12:53 AM 28.9 °F 23.9 °F 25.0 °F 85% 29.84 in 10.0 mi SSW 4.6 mph - 0.00 in Snow Light Snow
1:38 AM 28.4 °F 24.6 °F 26.6 °F 93% 29.88 in 2.0 mi South 3.5 mph - 0.00 in Snow Light Snow
1:53 AM 28.9 °F 25.2 °F 27.0 °F 92% 29.85 in 7.0 mi South 3.5 mph - 0.00 in Snow Light Snow
2:53 AM 28.9 °F - 27.0 °F 92% 29.87 in 7.0 mi Calm Calm - 0.00 in   Overcast
3:06 AM 28.4 °F - 26.6 °F 93% 29.90 in 7.0 mi Calm Calm - N/A   Overcast
3:25 AM 28.4 °F 22.2 °F 26.6 °F 93% 29.91 in 1.5 mi NNW 5.8 mph - 0.00 in Snow Light Snow
3:30 AM 28.4 °F 23.3 °F 26.6 °F 93% 29.91 in 0.8 mi NNW 4.6 mph - 0.01 in Snow Light Snow
3:40 AM 28.4 °F - 26.6 °F 93% 29.91 in 0.5 mi Calm Calm - 0.02 in Fog , Snow Snow
3:53 AM 28.9 °F - 27.0 °F 92% 29.91 in 0.5 mi Calm Calm - 0.05 in Fog , Snow Light Snow
4:01 AM 28.4 °F - 28.4 °F 100% 29.91 in 1.8 mi Calm Calm - 0.00 in Snow Light Snow
4:05 AM 28.4 °F - 26.6 °F 93% 29.91 in 3.0 mi Calm Calm - 0.00 in Snow Light Snow
4:23 AM 28.4 °F - 26.6 °F 93% 29.91 in 1.8 mi Calm Calm - 0.00 in Snow Light Snow
4:29 AM 28.4 °F 23.3 °F 26.6 °F 93% 29.92 in 0.5 mi Variable 4.6 mph - 0.01 in Fog , Snow Snow
4:46 AM 28.4 °F 24.6 °F 26.6 °F 93% 29.91 in 2.0 mi NW 3.5 mph - 0.02 in Snow Light Snow
4:53 AM 28.0 °F 24.2 °F 26.1 °F 92% 29.92 in 8.0 mi NW 3.5 mph - 0.02 in   Overcast
5:53 AM 28.0 °F - 25.0 °F 88% 29.94 in 10.0 mi Calm Calm - 0.00 in   Overcast
7:15 AM 24.8 °F - 23.0 °F 93% 29.96 in 1.5 mi Calm Calm - N/A   Scattered Clouds
7:31 AM 23.0 °F - 21.2 °F 93% 29.97 in 0.2 mi Calm Calm - N/A Fog Light Freezing Fog
7:40 AM 21.2 °F - 19.4 °F 93% 29.97 in 0.2 mi Calm Calm - N/A Fog Light Freezing Fog
7:53 AM 23.0 °F - 21.9 °F 96% 30.01 in 8.0 mi Calm Calm - N/A Fog Light Freezing Fog
8:53 AM 25.0 °F - 24.1 °F 96% 30.04 in 10.0 mi Calm Calm - N/A   Mostly Cloudy
9:53 AM 28.0 °F - 26.1 °F 92% 30.05 in 10.0 mi Calm Calm - N/A   Mostly Cloudy
10:53 AM 30.0 °F - 27.0 °F 88% 30.07 in 10.0 mi Calm Calm - N/A   Mostly Cloudy
11:01 AM 28.4 °F 24.6 °F 24.8 °F 86% 30.06 in 10.0 mi NNW 3.5 mph - N/A   Mostly Cloudy
11:53 AM 32.0 °F 26.4 °F 24.1 °F 73% 30.06 in 10.0 mi NNW 5.8 mph - N/A   Mostly Cloudy
12:38 PM 32.0 °F 28.7 °F 23.0 °F 69% 30.05 in 10.0 mi NNW 3.5 mph - N/A   Overcast
12:45 PM 32.0 °F - 24.8 °F 75% 30.05 in 10.0 mi Calm Calm - N/A   Overcast
12:53 PM 33.1 °F - 24.1 °F 70% 30.04 in 10.0 mi Calm Calm - N/A   Mostly Cloudy
1:53 PM 34.0 °F - 24.1 °F 67% 30.03 in 10.0 mi Calm Calm - N/A   Mostly Cloudy
2:53 PM 34.0 °F 28.0 °F 24.1 °F 67% 30.03 in 10.0 mi NNE 6.9 mph - N/A   Mostly Cloudy
3:53 PM 34.0 °F 31.0 °F 24.1 °F 67% 30.05 in 10.0 mi ESE 3.5 mph - N/A   Mostly Cloudy
4:53 PM 34.0 °F - 23.0 °F 64% 30.07 in 9.0 mi Calm Calm - N/A   Overcast
5:53 PM 32.0 °F 28.7 °F 23.0 °F 69% 30.08 in 10.0 mi SE 3.5 mph - 0.00 in   Mostly Cloudy
6:53 PM 33.1 °F - 23.0 °F 66% 30.09 in 10.0 mi Calm Calm - N/A   Overcast
7:53 PM 30.0 °F 24.1 °F 19.9 °F 66% 30.13 in 10.0 mi SW 5.8 mph - N/A   Partly Cloudy
8:53 PM 28.0 °F 20.8 °F 19.0 °F 69% 30.15 in 10.0 mi SSW 6.9 mph - N/A   Scattered Clouds
9:53 PM 25.0 °F 18.1 °F 17.1 °F 72% 30.16 in 10.0 mi SSW 5.8 mph - N/A   Clear
10:53 PM 24.1 °F 19.7 °F 17.1 °F 75% 30.17 in 10.0 mi SW 3.5 mph - N/A   Clear